GW0897 Weather Reports


time (UTC)temp
C
wind
direction
speed
KPH
gust
KPH
rain 1hr
cm
rain 24hr
cm
rain mn
cm
humidity
%
barometer
mb
20260507183008 11 41 3.2 0.0 0.00 0.00 2.44 52 1013.2
20260507181516 11 26 3.2 0.0 0.00 0.00 2.44 53 1012.8
20260507180108 11 131 3.2 0.0 0.00 0.00 2.41 53 1012.9
20260507174513 11 112 1.6 0.0 0.00 0.00 2.36 54 1013.6
20260507173016 11 69 1.6 0.0 0.00 0.00 2.29 54 1014.1
20260507171530 11 34 1.6 0.0 0.00 0.00 2.24 54 1014.1
20260507170012 12 91 1.6 0.0 0.00 0.00 2.18 54 1014.5
20260507164521 12 32 1.6 0.0 0.00 0.00 2.16 54 1014.1
20260507163030 12 159 1.6 0.0 0.00 0.00 2.13 55 1014.2
20260507161544 12 9 3.2 0.0 0.00 0.00 2.08 55 1013.9
20260507160031 12 40 3.2 0.0 0.00 0.00 1.98 55 1014.0
20260507154536 13 217 3.2 0.0 0.00 0.00 1.80 55 1013.5
20260507153042 13 339 3.2 0.0 0.00 0.00 1.57 56 1014.1
20260507151544 13 15 3.2 0.0 0.00 0.00 1.42 57 1014.3
20260507150035 13 344 4.8 0.0 0.00 0.00 1.30 56 1014.1
20260507144537 14 48 3.2 0.0 0.00 0.00 1.12 56 1014.3
20260507143045 15 72 3.2 0.0 0.00 0.00 1.09 57 1013.9
20260507141607 15 260 3.2 0.0 0.00 0.00 1.04 57 1013.9
20260507140040 15 198 3.2 0.0 0.00 0.00 1.04 57 1013.7
20260507134544 15 42 1.6 0.0 0.00 0.00 1.02 58 1013.6
20260507133059 15 34 1.6 0.0 0.00 0.00 0.99 59 1013.6
20260507131622 15 360 3.2 0.0 0.00 0.00 0.97 60 1013.4
20260507130051 15 38 3.2 0.0 0.00 0.00 0.89 61 1013.9
20260507124603 16 5 3.2 0.0 0.00 0.00 0.81 61 1014.1
20260507123107 16 17 3.2 0.0 0.00 0.00 0.81 60 1013.9
20260507121514 17 62 3.2 0.0 0.00 0.00 0.76 60 1014.0
20260507120100 18 43 1.6 0.0 0.00 0.00 0.61 60 1013.9
20260507114505 19 89 0.0 0.0 0.00 0.00 0.48 62 1013.4
20260507113030 19 89 0.0 0.0 0.00 0.00 0.33 62 1013.4
20260507111526 19 89 0.0 0.0 0.00 0.00 0.20 62 1013.2
20260507110007 19 89 0.0 0.0 0.00 0.00 0.08 63 1013.2
20260507104518 19 89 0.0 0.0 0.00 0.00 0.05 63 1013.1
20260507103023 19 107 0.0 0.0 0.00 0.00 0.05 63 1013.0
20260507101526 19 112 0.0 0.0 0.00 0.00 0.03 63 1012.7
20260507100030 19 109 0.0 0.0 0.00 0.00 0.03 64 1012.3
20260507094522 19 103 0.0 0.0 0.00 0.00 0.03 64 1012.1
20260507093034 20 153 0.0 0.0 0.00 0.00 0.03 64 1011.9
20260507091544 20 130 0.0 0.0 0.00 0.00 0.03 64 1011.9
20260507090029 20 269 1.6 0.0 0.00 0.00 0.03 64 1012.3
20260507084551 20 180 0.0 0.0 0.00 0.00 0.03 63 1012.4
20260507083048 20 164 1.6 0.0 0.00 0.00 0.03 63 1012.8
20260507081601 20 258 0.0 0.0 0.00 0.00 0.03 63 1012.9
20260507080051 20 302 0.0 0.0 0.00 0.00 0.03 63 1012.9
20260507074555 20 289 1.6 0.0 0.00 0.00 0.03 64 1013.3
20260507073109 20 221 0.0 0.0 0.00 0.00 0.03 64 1013.0
20260507071504 20 273 0.0 0.0 0.00 0.00 0.03 63 1013.0
20260507070059 20 106 0.0 0.0 0.00 0.00 0.03 63 1013.0
20260507064602 20 105 0.0 0.0 0.00 0.00 0.00 63 1012.5
20260507063002 20 105 0.0 0.0 0.00 0.00 0.00 62 1012.4
20260507061507 20 104 0.0 0.0 0.00 0.00 0.00 61 1013.3
20260507060058 21 204 0.0 0.0 0.00 0.00 0.00 60 1014.0
20260507054601 21 146 0.0 0.0 0.00 0.00 0.00 59 1014.1
20260507053104 21 89 0.0 0.0 0.00 0.00 0.00 58 1014.0
20260507051510 21 194 0.0 0.0 0.00 0.00 0.00 57 1014.1
20260507050110 21 182 0.0 0.0 0.00 0.00 0.00 56 1014.0
20260507044505 21 79 0.0 0.0 0.00 0.00 0.00 56 1013.8
20260507043011 21 192 0.0 0.0 0.00 0.00 0.00 56 1013.9
20260507041513 21 191 0.0 0.0 0.00 0.00 0.00 57 1014.0
20260507040111 21 129 0.0 0.0 0.00 0.00 0.00 57 1013.9
20260507034506 21 144 0.0 0.0 0.00 0.00 0.00 57 1013.5
20260507033020 21 144 0.0 0.0 0.00 0.00 0.00 56 1013.6
20260507031525 21 144 0.0 0.0 0.00 0.00 0.00 55 1013.5
20260507030004 21 144 0.0 0.0 0.00 0.00 0.00 55 1013.6
20260507024515 22 144 0.0 0.0 0.00 0.00 0.00 54 1013.9
20260507023015 22 144 0.0 0.0 0.00 0.00 0.00 53 1014.1
20260507021531 22 143 0.0 0.0 0.00 0.00 0.00 53 1014.0
20260507014512 22 144 0.0 0.0 0.00 0.00 0.00 52 1014.3
20260507013018 23 144 0.0 0.0 0.00 0.00 0.00 51 1014.0
20260507011530 23 144 0.0 0.0 0.00 0.00 0.00 50 1014.1
20260507010027 23 144 0.0 0.0 0.00 0.00 0.00 50 1014.2
20260507004524 23 144 0.0 0.0 0.00 0.00 0.00 49 1014.2
20260507003035 23 144 0.0 0.0 0.00 0.00 0.00 48 1013.8
20260507001541 24 144 0.0 0.0 0.00 0.00 0.00 47 1013.6
20260507000018 24 144 0.0 0.0 0.00 0.00 0.00 46 1013.4
20260506234530 25 144 0.0 0.0 0.00 0.00 0.00 46 1013.5
20260506233038 25 139 0.0 0.0 0.00 0.00 0.00 45 1013.1
20260506231546 25 138 0.0 0.0 0.00 0.00 0.00 44 1013.3
20260506230033 25 135 0.0 0.0 0.00 0.00 0.00 43 1013.0
20260506224546 26 206 0.0 0.0 0.00 0.00 0.00 43 1013.1
20260506223059 26 61 0.0 0.0 0.00 0.00 0.00 44 1013.1
20260506221558 26 79 1.6 0.0 0.00 0.00 0.00 43 1012.9
20260506220041 26 258 0.0 0.0 0.00 0.00 0.00 44 1013.1
20260506214552 26 211 0.0 0.0 0.00 0.00 0.00 44 1013.1
20260506213100 26 127 1.6 0.0 0.00 0.00 0.00 42 1012.5
20260506211500 26 182 1.6 0.0 0.00 0.00 0.00 43 1012.8
20260506210054 26 248 3.2 0.0 0.00 0.00 0.00 42 1013.2
20260506204603 26 223 3.2 0.0 0.00 0.00 0.00 43 1013.3
20260506203016 26 107 3.2 0.0 0.00 0.00 0.00 42 1013.6
20260506201511 26 156 3.2 0.0 0.00 0.00 0.00 42 1013.8
20260506200112 26 224 3.2 0.0 0.00 0.00 0.00 43 1014.1
20260506194502 26 269 4.8 0.0 0.00 0.00 0.00 44 1014.5
20260506193016 26 189 3.2 0.0 0.00 0.00 0.00 46 1014.5
20260506191516 25 221 1.6 0.0 0.00 0.00 0.00 48 1014.6
20260506190006 25 329 1.6 0.0 0.00 0.00 0.00 47 1014.6
20260506184509 26 198 4.8 0.0 0.00 0.00 0.00 45 1014.9